This demonstration page uses our WeatherBlox Daily Observations layout. Learn more.

41.55636, -103.73856

Hourly Observations for October 6, 2016

Temp ( °F °C ) Dew Point ( °F °C ) Humidity (%) Winds ( mph kmh ) Pressure ( in mb ) Visibility ( mi km ) Precip ( " mm )
12:53 am 00:53 Cloudy 50 10 32 0 50 50 E 6 9 29.94 1014 10 16.0934 0 0
1:53 am 01:53 Cloudy 48 8.9 33 0.6 56 56 VRB 6 9 29.94 1014 10 16.0934 0 0
2:53 am 02:53 Cloudy 47 8.3 33 0.6 59 59 N 8 13 29.96 1015 10 16.0934 0 0
3:53 am 03:53 Mostly Cloudy 44 6.7 33 0.6 65 65 N 9 15 29.93 1014 10 16.0934 0 0
4:53 am 04:53 Cloudy 44 6.7 32 0 63 63 NE 10 17 29.96 1015 10 16.0934 0 0
5:53 am 05:53 Cloudy 43 6.1 32 0 65 65 ENE 9 15 29.99 1016 10 16.0934 0 0
6:53 am 06:53 Cloudy 42 5.6 30 -1.1 62 62 NE 14 22 29.99 1016 10 16.0934 0 0
7:53 am 07:53 Cloudy 42 5.6 29 -1.7 60 60 E 9 15 30.07 1018 10 16.0934 0 0
8:53 am 08:53 Cloudy with Light Rain 40 4.4 33 0.6 77 77 ENE 14 22 30.1 1019 10 16.0934 0 0.0254
9:04 am 09:04 Cloudy with Light Rain 39 4 34 1 81 81 ENE 12 19 30.18 1022 10 16.0934 0 0
9:53 am 09:53 Cloudy with Light Rain 38 3.3 34 1.1 86 86 NE 7 11 30.14 1021 10 16.0934 0.03 0.762
10:26 am 10:26 Cloudy with Light Rain 37 3 37 3 100 100 N 8 13 30.21 1023 10 16.0934 0 0
10:43 am 10:43 Cloudy 38 3.3 37 2.8 97 97 N 9 15 30.18 1022 10 16.0934 0.02 0.508
10:50 am 10:50 Cloudy 37 3 N/A N/A N 8 13 30.21 1023 10 16.0934 0 0
10:53 am 10:53 Cloudy 37 3 N/A N/A NNE 8 13 30.15 1021 10 16.0934 0.02 0.508
11:32 am 11:32 Cloudy 39 4 N/A N/A NE 8 13 30.18 1022 10 16.0934 0 0
11:53 am 11:53 Cloudy 39 4 N/A N/A NNE 7 11 30.15 1021 10 16.0934 0 0
12:12 pm 12:12 Cloudy 39 4 N/A N/A NE 5 7 30.18 1022 10 16.0934 0 0
12:53 pm 12:53 Cloudy with Light Rain 40 4.4 36 2.2 86 86 NNE 5 7 30.16 1021 9 14.48406 0.01 0.254
1:05 pm 13:05 Cloudy with Light Rain 40 4.4 35 1.7 83 83 NE 5 7 30.21 1023 9 14.48406 0 0.0254
1:24 pm 13:24 Cloudy with Light Rain 39 4 36 2 87 87 ENE 3 6 30.21 1023 9 14.48406 0 0
1:53 pm 13:53 Cloudy 41 5 36 2.2 82 82 ENE 3 6 30.17 1022 10 16.0934 0.01 0.254
2:53 pm 14:53 Cloudy 41 5 36 2.2 82 82 E 6 9 30.18 1022 10 16.0934 0 0
3:29 pm 15:29 Cloudy 42 5.6 35 1.7 76 76 SSE 3 6 30.18 1022 10 16.0934 0 0
3:53 pm 15:53 Cloudy 43 6.1 35 1.7 74 74 Calm 30.19 1023 10 16.0934 0 0
4:20 pm 16:20 Partly Cloudy 43 6 36 2 76 76 SE 6 9 30.21 1023 10 16.0934 0 0
4:41 pm 16:41 Mostly Cloudy 44 6.7 36 2.2 73 73 SSW 6 9 30.21 1023 10 16.0934 0 0
4:53 pm 16:53 Cloudy 44 6.7 36 2.2 73 73 S 6 9 30.21 1023 10 16.0934 0 0
5:50 pm 17:50 Partly Cloudy 43 6 36 2 76 76 SSE 5 7 30.21 1023 10 16.0934 0 0
5:53 pm 17:53 Mostly Sunny 43 6.1 35 1.7 74 74 SSE 5 7 30.22 1024 10 16.0934 0 0
6:53 pm 18:53 Mostly Cloudy 40 4.4 35 1.7 83 83 SSW 3 6 30.25 1024 10 16.0934 0 0
7:53 pm 19:53 Partly Cloudy 39 3.9 35 1.7 86 86 S 6 9 30.26 1025 10 16.0934 0 0
8:53 pm 20:53 Clear 34 1.1 31 -0.6 89 89 E 3 6 30.29 1026 10 16.0934 0 0
9:53 pm 21:53 Clear 33 0.6 31 -0.6 92 92 E 3 6 30.29 1026 10 16.0934 0 0
10:53 pm 22:53 Clear 32 0 29 -1.7 88 88 Calm 30.29 1026 10 16.0934 0 0
11:53 pm 23:53 Clear 31 -0.6 29 -1.7 92 92 N 6 9 30.29 1026 10 16.0934 0 0

Powered by AerisWeather